Regional Weather Roundup
Issued by NWS New Orleans/Baton Rouge, LA

Home | Current Version | Previous Version | Text Only | Print | Product List | Glossary Off
Versions: 1 2 3 4 5 6 7 8 9 10 11 12 13 14 15 16 17 18 19 20 21 22 23 24 25 26 27 28 29 30 31 32 33 34 35 36 37 38 39 40 41 42 43 44 45 46 47 48 49 50

081
ASUS44 KLIX 292310
RWRLIX
NEW ORLEANS REGIONAL WEATHER ROUNDUP
NATIONAL WEATHER SERVICE NEW ORLEANS LA
600 PM CDT MON SEP 29 2014

NOTE: "FAIR" INDICATES FEW OR NO CLOUDS BELOW 12,000 FEET WITH NO
      SIGNIFICANT WEATHER AND/OR OBSTRUCTIONS TO VISIBILITY.
      SKY/WX - SKY CONDITION AND SIGNIFICANT WEATHER.
      TMP - AIR TEMPERATURE.     DP    - DEWPOINT TEMPERATURE.
      RH  - RELATIVE HUMIDITY.   PRES  - PRESSURE.
      HI  - HEAT INDEX.          WCI   - WIND CHILL INDEX.

*  THESE STATIONS ARE NOT NWS OR FAA STATIONS AND ARE NOT UNDER
   NWS QUALITY CONTROL.

LAZ038-040-048-061>063-065>067-069-300000-
SOUTHEAST LOUISIANA

CITY           SKY/WX    TMP DP  RH WIND       PRES   REMARKS
N.O. AUDUBON     N/A     83  73  69 MISG        N/A
N.O. INTL ARPT PTCLDY    83  69  62 N5        29.86R
N.O. LAKEFRONT CLEAR     81  72  74 NW6       29.86S
N.O. DOWNTOWN*   N/A     82  68  61 N6        29.86S
SLIDELL        PTCLDY    84  71  65 NE3       29.85S
BATON ROUGE    MOSUNNY   82  71  69 E8        29.86R
BOOTHVILLE     CLEAR     81  72  74 NE5       29.86S
BELLE CHASSE   PTCLDY    84  69  60 N3        29.85R
BOGALUSA*        N/A     85  69  57 NE5       29.87S
GALLIANO*      NOT AVBL
NEW ROADS*       N/A     80  73  81 NE3       29.87R
GONZALES*      MOCLDY    82  75  80 E3        29.86R
HAMMOND*       CLEAR     84  68  58 CALM      29.88R
HOUMA*         MOSUNNY  N/A N/A N/A NE5       29.86
PORT FOURCHON* CLEAR     82  72  69 NE8       29.89R

$$

MSZ070-080>082-300000-
SOUTHERN MISSISSIPPI

CITY           SKY/WX    TMP DP  RH WIND       PRES   REMARKS
MCCOMB         CLEAR     83  68  60 CALM      29.88R
GULFPORT       PTCLDY    82  71  69 N7        29.85R
BILOXI         MOCLDY    82  72  71 NE8       29.85R
PASCAGOULA     PTCLDY    82  71  69 N10       29.85R
STENNIS ARPT*  PTCLDY    82  70  65 NE3       29.86R

$$

COASTAL OBSERVATIONS
LAKE AND NEARSHORE STATIONS

STATION/POSITION TIME  TEMP    WIND        PRES    WAVE
                       AIR SEA DIR/SP/G            HT/PER
                 (UTC) (F)     (DEG/KT/KT) (MB)    (FT/S)
PASCAGOULA       2300   82     350/  7/ 10 1010.2
WAVELAND YACHT   2300   79     170/  5/  6 1010.3
GRAND ISLE       2300   81 81   40/  5/  6 1011.5
SOUTHWEST PASS   2300   87 87   40/ 12/ 13 1011.3
NEW CANAL        2300   80 77  340/  3/  4 1011.5
SHELL BEACH      2300   80 74  360/  4/  4 1010.8

OFFSHORE STATIONS

STATION/POSITION TIME  TEMP    WIND        PRES    WAVE
                       AIR SEA DIR/SP/G            HT/PER
                 (UTC) (F)     (DEG/KT/KT) (MB)    (FT/S)
64 S DAUPHIN ISL 2217   80 83  360/ 12/ 14 1011.0    3/ 5

$$




USA.gov is the U.S. government's official web portal to all federal, state and local government web resources and services.